Lubbock, TX

8:17 AM CDT on March 26, 2017 (GMT -0500)
Lubbock International

Weather History for KLBB - May, 2013

Change the Weather History Date:

Sunday, May 5, 2013

  Actual Average Record
Temperature  
Mean Temperature 54 °F 67 °F  
Max Temperature 71 °F 81 °F 99 °F (1940)
Min Temperature 37 °F 52 °F 34 °F (1953)
Degree Days  
Heating Degree Days 11 2  
Month to date heating degree days 67 12  
Since 1 July heating degree days 3189 3349  
Cooling Degree Days 0 4  
Month to date cooling degree days 0 17  
Year to date cooling degree days 62 73  
Growing Degree Days 4 (Base 50)    
Moisture  
Dew Point 21 °F    
Average Humidity 29    
Maximum Humidity 44    
Minimum Humidity 14    
Precipitation  
Precipitation 0.00 in 0.05 in 1.40 in (1972)
Month to date precipitation T 0.27  
Year to date precipitation 2.27 4.18  
Snow  
Snow 0.00 in 0.00 in T in (1949)
Month to date snowfall 0.0 0.0  
Since 1 July snowfall 4.1 8.2  
Snow Depth 0.00 in    
Sea Level Pressure  
Sea Level Pressure 30.08 in    
Wind  
Wind Speed 7 mph (ENE)    
Max Wind Speed 16 mph    
Max Gust Speed 20 mph    
Visibility 10 miles    
Events      
T = Trace of Precipitation, MM = Missing Value Source: NWS Daily Summary

Daily Weather History Graph

Daily Weather History Graph

Search for Another Location

Airport or City:

Trip Planner

Search our weather history database for the weather conditions in past years. The results will help you decide how hot, cold, wet, or windy it might be!

Date:

Astronomy

May. 05, 2013 Rise Set
Actual Time 6:54 AM CDT 8:33 PM CDT
Civil Twilight 6:27 AM CDT 9:00 PM CDT
Nautical Twilight 5:55 AM CDT 9:33 PM CDT
Astronomical Twilight 5:21 AM CDT 10:07 PM CDT
Moon 4:14 AM CDT (5/5) 4:45 PM CDT (5/5)
Length of Visible Light 14h 32m
Length of Day
13h 39m
Waning Crescent, 18% of the Moon is Illuminated
May 5
Waning Crescent
May 9
New
May 17
First Quarter
May 24
Full
May 31
Last Quarter

Hourly Weather History & Observations

Time (CDT) Temp. Windchill Dew Point Humidity Pressure Visibility Wind Dir Wind Speed Gust Speed Precip Events Conditions
12:53 AM 50.0 °F - 21.9 °F 33% 30.03 in 10.0 mi East 9.2 mph - N/A   Scattered Clouds
1:53 AM 46.0 °F 43.9 °F 21.0 °F 37% 30.05 in 10.0 mi East 4.6 mph - N/A   Partly Cloudy
2:53 AM 44.1 °F 40.8 °F 19.0 °F 37% 30.05 in 10.0 mi NE 5.8 mph - N/A   Partly Cloudy
3:53 AM 43.0 °F 38.2 °F 19.0 °F 38% 30.06 in 10.0 mi NNE 8.1 mph - N/A   Scattered Clouds
4:53 AM 41.0 °F 35.2 °F 17.1 °F 38% 30.07 in 10.0 mi NE 9.2 mph - N/A   Scattered Clouds
5:53 AM 37.9 °F 32.7 °F 18.0 °F 45% 30.09 in 10.0 mi NNE 6.9 mph - N/A   Partly Cloudy
6:53 AM 37.0 °F 31.0 °F 17.1 °F 44% 30.11 in 10.0 mi North 8.1 mph - N/A   Scattered Clouds
7:53 AM 42.1 °F 37.7 °F 19.0 °F 40% 30.15 in 10.0 mi NNW 6.9 mph - N/A   Scattered Clouds
8:53 AM 50.0 °F - 28.9 °F 44% 30.15 in 10.0 mi NNE 5.8 mph - N/A   Scattered Clouds
9:53 AM 55.0 °F - 27.0 °F 34% 30.16 in 10.0 mi NNE 12.7 mph - N/A   Scattered Clouds
10:53 AM 59.0 °F - 25.0 °F 27% 30.16 in 10.0 mi NNE 8.1 mph - N/A   Scattered Clouds
11:53 AM 61.0 °F - 23.0 °F 23% 30.15 in 10.0 mi NE 11.5 mph - N/A   Mostly Cloudy
12:53 PM 64.4 °F - 21.2 °F 19% 30.21 in 10.0 mi ENE 9.2 mph 17.3 mph N/A   Mostly Cloudy
1:53 PM 66.9 °F - 19.9 °F 17% 30.12 in 10.0 mi NNW 6.9 mph - N/A   Mostly Cloudy
2:53 PM 68.0 °F - 19.9 °F 16% 30.10 in 10.0 mi NE 3.5 mph - N/A   Mostly Cloudy
3:53 PM 71.1 °F - 19.9 °F 14% 30.06 in 10.0 mi Variable 3.5 mph - N/A   Mostly Cloudy
4:53 PM 70.0 °F - 19.9 °F 15% 30.04 in 10.0 mi Calm Calm - N/A   Mostly Cloudy
5:53 PM 70.0 °F - 19.9 °F 15% 30.05 in 10.0 mi Variable 3.5 mph - N/A   Mostly Cloudy
6:53 PM 70.0 °F - 19.9 °F 15% 30.03 in 10.0 mi SE 4.6 mph - N/A   Mostly Cloudy
7:53 PM 69.1 °F - 19.9 °F 15% 30.01 in 10.0 mi ESE 6.9 mph - N/A   Mostly Cloudy
8:53 PM 64.9 °F - 19.0 °F 17% 30.01 in 10.0 mi SSE 3.5 mph - N/A   Scattered Clouds
9:53 PM 60.1 °F - 26.1 °F 27% 30.03 in 10.0 mi East 5.8 mph - N/A   Scattered Clouds
10:53 PM 57.0 °F - 26.1 °F 30% 30.04 in 10.0 mi SE 8.1 mph - N/A   Partly Cloudy
11:53 PM 54.0 °F - 24.1 °F 31% 30.04 in 10.0 mi ESE 6.9 mph - N/A   Partly Cloudy